Location: Kershaw
(34.5481°N, 80.5823°W)
Time: 08:27:58
(UTC+00:00)

Tiros 1 despin weight - Pass Details

Date: 04 October 2022
Orbit: 590 x 637 km, 48.2° (Epoch: 28 November)

Event Time Altitude Azimuth Distance (km) Brightness Sun altitude
Rises 21:56:16 0° 278° (W) 2,840 ? 12.5°
Reaches altitude 10° 21:59:05 10° 295° (WNW) 1,948 ? 12.0°
Maximum altitude 22:02:22 20° 343° (NNW) 1,433 ? 11.3°
Drops below altitude 10° 22:05:41 10° 30° (NNE) 1,974 ? 10.7°
Sets 22:08:34 0° 48° (NE) 2,891 ? 10.1°
